Time,TemperatureF,DewpointF,PressureIn,WindDirection,WindDirectionDegrees,WindSpeedMPH,WindSpeedGustMPH,Humidity,HourlyPrecipIn,Conditions,Clouds,dailyrainin,SoftwareType,DateUTC
2013-02-10 00:00:00,13.1,8.6,30.15,NNW,340,10.0,10.0,82,0.00,,,0.00,Wunderground v.1.15,2013-02-10 05:00:00,
2013-02-10 00:01:00,13.1,8.6,30.16,NW,317,2.0,10.0,82,0.00,,,0.00,Wunderground v.1.15,2013-02-10 05:01:00,
2013-02-10 00:07:00,13.1,8.6,30.16,NNW,346,11.0,12.0,82,0.00,,,0.00,Wunderground v.1.15,2013-02-10 05:07:00,
2013-02-10 00:09:00,13.1,8.6,30.16,NNW,340,9.0,12.0,82,0.00,,,0.00,Wunderground v.1.15,2013-02-10 05:09:00,
2013-02-10 00:14:00,13.1,8.6,30.16,NNW,333,14.0,14.0,82,0.00,,,0.00,Wunderground v.1.15,2013-02-10 05:14:00,
2013-02-10 00:19:00,13.1,8.6,30.16,NNW,346,7.0,14.0,82,0.00,,,0.00,Wunderground v.1.15,2013-02-10 05:19:00,
2013-02-10 00:24:00,13.1,8.6,30.16,West,276,4.0,10.0,82,0.00,,,0.00,Wunderground v.1.15,2013-02-10 05:24:00,
2013-02-10 00:29:00,13.1,8.6,30.16,NW,308,9.0,10.0,82,0.00,,,0.00,Wunderground v.1.15,2013-02-10 05:29:00,
2013-02-10 00:34:00,13.1,8.6,30.16,NW,321,8.0,9.0,82,0.00,,,0.00,Wunderground v.1.15,2013-02-10 05:34:00,
2013-02-10 00:39:00,13.1,8.6,30.16,West,281,8.0,14.0,82,0.00,,,0.00,Wunderground v.1.15,2013-02-10 05:39:00,
2013-02-10 00:45:00,13.1,8.6,30.16,NW,306,14.0,14.0,82,0.00,,,0.00,Wunderground v.1.15,2013-02-10 05:45:00,
2013-02-10 00:50:00,13.1,8.6,30.17,NW,324,11.0,11.0,82,0.00,,,0.00,Wunderground v.1.15,2013-02-10 05:50:00,
2013-02-10 00:55:00,13.1,8.6,30.17,WNW,298,6.0,11.0,82,0.00,,,0.00,Wunderground v.1.15,2013-02-10 05:55:00,
2013-02-10 01:00:00,13.1,8.6,30.17,NW,319,13.0,13.0,82,0.00,,,0.00,Wunderground v.1.15,2013-02-10 06:00:00,
2013-02-10 01:05:00,13.1,8.6,30.17,WNW,288,7.0,13.0,82,0.00,,,0.00,Wunderground v.1.15,2013-02-10 06:05:00,
2013-02-10 01:11:00,13.2,8.7,30.17,West,281,10.0,10.0,82,0.00,,,0.00,Wunderground v.1.15,2013-02-10 06:11:00,
2013-02-10 01:16:00,13.1,8.6,30.17,NW,306,5.0,11.0,82,0.00,,,0.00,Wunderground v.1.15,2013-02-10 06:16:00,
2013-02-10 01:21:00,13.1,8.6,30.17,NW,316,5.0,13.0,82,0.00,,,0.00,Wunderground v.1.15,2013-02-10 06:21:00,
2013-02-10 01:26:00,13.1,8.6,30.17,NW,317,9.0,13.0,82,0.00,,,0.00,Wunderground v.1.15,2013-02-10 06:26:00,
2013-02-10 01:31:00,13.1,8.6,30.17,NNW,338,9.0,9.0,82,0.00,,,0.00,Wunderground v.1.15,2013-02-10 06:31:00,
2013-02-10 01:36:00,13.1,8.6,30.18,NNW,336,8.0,12.0,82,0.00,,,0.00,Wunderground v.1.15,2013-02-10 06:36:00,
2013-02-10 01:42:00,13.1,8.6,30.18,WNW,293,4.0,11.0,82,0.00,,,0.00,Wunderground v.1.15,2013-02-10 06:42:00,
2013-02-10 01:47:00,13.1,8.6,30.18,NNW,334,7.0,11.0,82,0.00,,,0.00,Wunderground v.1.15,2013-02-10 06:47:00,
2013-02-10 01:53:00,13.2,8.7,30.19,NW,316,13.0,13.0,82,0.00,,,0.00,Wunderground v.1.15,2013-02-10 06:53:00,
2013-02-10 01:58:00,13.2,8.7,30.19,NNW,327,6.0,13.0,82,0.00,,,0.00,Wunderground v.1.15,2013-02-10 06:58:00,
2013-02-10 02:03:00,13.2,8.7,30.19,WNW,300,6.0,14.0,82,0.00,,,0.00,Wunderground v.1.15,2013-02-10 07:03:00,
2013-02-10 02:08:00,13.2,8.7,30.19,NNW,342,11.0,16.0,82,0.00,,,0.00,Wunderground v.1.15,2013-02-10 07:08:00,
2013-02-10 02:13:00,13.3,8.8,30.19,NNW,328,11.0,17.0,82,0.00,,,0.00,Wunderground v.1.15,2013-02-10 07:13:00,
2013-02-10 02:18:00,13.4,8.9,30.19,NNW,331,7.0,17.0,82,0.00,,,0.00,Wunderground v.1.15,2013-02-10 07:18:00,
2013-02-10 02:23:00,13.4,8.9,30.19,North,355,13.0,16.0,82,0.00,,,0.00,Wunderground v.1.15,2013-02-10 07:23:00,
2013-02-10 02:28:00,13.4,8.9,30.19,NW,317,6.0,16.0,82,0.00,,,0.00,Wunderground v.1.15,2013-02-10 07:28:00,
2013-02-10 02:33:00,13.4,8.9,30.20,NW,311,9.0,15.0,82,0.00,,,0.00,Wunderground v.1.15,2013-02-10 07:33:00,
2013-02-10 02:38:00,13.4,8.9,30.19,NNW,342,8.0,17.0,82,0.00,,,0.00,Wunderground v.1.15,2013-02-10 07:38:00,
2013-02-10 02:43:00,13.5,9.0,30.19,NW,312,12.0,12.0,82,0.00,,,0.00,Wunderground v.1.15,2013-02-10 07:43:00,
2013-02-10 02:48:00,13.5,9.0,30.19,NNW,333,4.0,21.0,82,0.00,,,0.00,Wunderground v.1.15,2013-02-10 07:48:00,
2013-02-10 02:53:00,13.5,9.0,30.19,WNW,295,8.0,13.0,82,0.00,,,0.00,Wunderground v.1.15,2013-02-10 07:53:00,
2013-02-10 02:58:00,13.6,9.1,30.19,NNW,331,6.0,17.0,82,0.00,,,0.00,Wunderground v.1.15,2013-02-10 07:58:00,
2013-02-10 03:03:00,13.6,9.1,30.19,NNW,336,9.0,16.0,82,0.00,,,0.00,Wunderground v.1.15,2013-02-10 08:03:00,
2013-02-10 03:08:00,13.5,9.0,30.20,NW,322,10.0,16.0,82,0.00,,,0.00,Wunderground v.1.15,2013-02-10 08:08:00,
2013-02-10 03:13:00,13.6,9.1,30.20,NW,324,10.0,15.0,82,0.00,,,0.00,Wunderground v.1.15,2013-02-10 08:13:00,
2013-02-10 03:18:00,13.5,9.0,30.20,NNW,333,3.0,15.0,82,0.00,,,0.00,Wunderground v.1.15,2013-02-10 08:18:00,
2013-02-10 03:23:00,13.5,9.0,30.21,NNW,332,11.0,17.0,82,0.00,,,0.00,Wunderground v.1.15,2013-02-10 08:23:00,
2013-02-10 03:28:00,13.5,9.0,30.21,NW,326,10.0,17.0,82,0.00,,,0.00,Wunderground v.1.15,2013-02-10 08:28:00,
2013-02-10 03:33:00,13.5,9.0,30.21,NW,325,8.0,9.0,82,0.00,,,0.00,Wunderground v.1.15,2013-02-10 08:33:00,
2013-02-10 03:38:00,13.4,8.9,30.21,NW,322,5.0,12.0,82,0.00,,,0.00,Wunderground v.1.15,2013-02-10 08:38:00,
2013-02-10 03:43:00,13.4,8.9,30.21,North,9,8.0,14.0,82,0.00,,,0.00,Wunderground v.1.15,2013-02-10 08:43:00,
2013-02-10 03:48:00,13.3,8.8,30.21,WNW,301,6.0,14.0,82,0.00,,,0.00,Wunderground v.1.15,2013-02-10 08:48:00,
2013-02-10 03:53:00,13.2,8.7,30.22,NW,318,12.0,13.0,82,0.00,,,0.00,Wunderground v.1.15,2013-02-10 08:53:00,
2013-02-10 03:58:00,13.2,8.7,30.22,NW,321,6.0,13.0,82,0.00,,,0.00,Wunderground v.1.15,2013-02-10 08:58:00,
2013-02-10 04:03:00,13.2,8.7,30.22,West,281,6.0,10.0,82,0.00,,,0.00,Wunderground v.1.15,2013-02-10 09:03:00,
2013-02-10 04:08:00,13.2,8.7,30.22,NNW,327,3.0,14.0,82,0.00,,,0.00,Wunderground v.1.15,2013-02-10 09:08:00,
2013-02-10 04:13:00,13.1,8.6,30.22,NNW,331,3.0,9.0,82,0.00,,,0.00,Wunderground v.1.15,2013-02-10 09:13:00,
2013-02-10 04:18:00,13.0,8.5,30.23,NNW,336,3.0,9.0,82,0.00,,,0.00,Wunderground v.1.15,2013-02-10 09:18:00,
2013-02-10 04:23:00,12.8,8.3,30.23,WNW,294,3.0,8.0,82,0.00,,,0.00,Wunderground v.1.15,2013-02-10 09:23:00,
2013-02-10 04:28:00,12.6,8.1,30.23,NW,307,5.0,8.0,82,0.00,,,0.00,Wunderground v.1.15,2013-02-10 09:28:00,
2013-02-10 04:33:00,12.5,8.0,30.24,WNW,286,3.0,10.0,82,0.00,,,0.00,Wunderground v.1.15,2013-02-10 09:33:00,
2013-02-10 04:38:00,12.3,7.9,30.24,WNW,284,4.0,10.0,82,0.00,,,0.00,Wunderground v.1.15,2013-02-10 09:38:00,
2013-02-10 04:43:00,12.1,7.7,30.24,WNW,296,3.0,8.0,82,0.00,,,0.00,Wunderground v.1.15,2013-02-10 09:43:00,
2013-02-10 04:48:00,12.0,7.6,30.24,West,273,2.0,8.0,82,0.00,,,0.00,Wunderground v.1.15,2013-02-10 09:48:00,
2013-02-10 04:53:00,11.8,7.4,30.25,WNW,290,1.0,6.0,82,0.00,,,0.00,Wunderground v.1.15,2013-02-10 09:53:00,
2013-02-10 04:58:00,11.6,7.2,30.24,WNW,291,0.0,6.0,82,0.00,,,0.00,Wunderground v.1.15,2013-02-10 09:58:00,
2013-02-10 05:03:00,11.5,7.1,30.25,WNW,298,2.0,6.0,82,0.00,,,0.00,Wunderground v.1.15,2013-02-10 10:03:00,
2013-02-10 05:08:00,11.3,6.9,30.25,WNW,293,0.0,6.0,82,0.00,,,0.00,Wunderground v.1.15,2013-02-10 10:08:00,
2013-02-10 05:13:00,11.1,6.7,30.25,WNW,293,3.0,6.0,82,0.00,,,0.00,Wunderground v.1.15,2013-02-10 10:13:00,
2013-02-10 05:18:00,10.9,6.2,30.26,WNW,291,3.0,7.0,81,0.00,,,0.00,Wunderground v.1.15,2013-02-10 10:18:00,
2013-02-10 05:23:00,10.7,6.3,30.26,WNW,285,1.0,7.0,82,0.00,,,0.00,Wunderground v.1.15,2013-02-10 10:23:00,
2013-02-10 05:28:00,10.5,5.8,30.26,NW,321,2.0,7.0,81,0.00,,,0.00,Wunderground v.1.15,2013-02-10 10:28:00,
2013-02-10 05:33:00,10.4,6.0,30.26,NW,307,1.0,2.0,82,0.00,,,0.00,Wunderground v.1.15,2013-02-10 10:33:00,
2013-02-10 05:38:00,10.4,6.0,30.27,NW,307,0.0,2.0,82,0.00,,,0.00,Wunderground v.1.15,2013-02-10 10:38:00,
2013-02-10 05:43:00,10.2,5.5,30.27,WNW,303,1.0,2.0,81,0.00,,,0.00,Wunderground v.1.15,2013-02-10 10:43:00,
2013-02-10 05:48:00,10.0,5.3,30.28,West,260,1.0,4.0,81,0.00,,,0.00,Wunderground v.1.15,2013-02-10 10:48:00,
2013-02-10 05:53:00,9.9,5.2,30.27,WSW,250,0.0,2.0,81,0.00,,,0.00,Wunderground v.1.15,2013-02-10 10:53:00,
2013-02-10 05:58:00,9.6,4.9,30.28,WNW,298,3.0,4.0,81,0.00,,,0.00,Wunderground v.1.15,2013-02-10 10:58:00,
2013-02-10 06:03:00,9.5,4.8,30.28,WNW,299,3.0,4.0,81,0.00,,,0.00,Wunderground v.1.15,2013-02-10 11:03:00,
2013-02-10 06:08:00,9.3,4.6,30.28,WNW,288,1.0,6.0,81,0.00,,,0.00,Wunderground v.1.15,2013-02-10 11:08:00,
2013-02-10 06:13:00,9.1,4.5,30.28,WNW,302,2.0,5.0,81,0.00,,,0.00,Wunderground v.1.15,2013-02-10 11:13:00,
2013-02-10 06:18:00,9.0,4.4,30.28,WNW,286,1.0,5.0,81,0.00,,,0.00,Wunderground v.1.15,2013-02-10 11:18:00,
2013-02-10 06:23:00,8.9,4.3,30.28,West,277,2.0,4.0,81,0.00,,,0.00,Wunderground v.1.15,2013-02-10 11:23:00,
2013-02-10 06:28:00,8.8,4.2,30.28,West,278,1.0,4.0,81,0.00,,,0.00,Wunderground v.1.15,2013-02-10 11:28:00,
2013-02-10 06:33:00,8.7,4.1,30.28,West,278,3.0,3.0,81,0.00,,,0.00,Wunderground v.1.15,2013-02-10 11:33:00,
2013-02-10 06:38:00,8.6,4.0,30.28,West,277,0.0,3.0,81,0.00,,,0.00,Wunderground v.1.15,2013-02-10 11:38:00,
2013-02-10 06:43:00,8.4,3.8,30.29,West,277,0.0,3.0,81,0.00,,,0.00,Wunderground v.1.15,2013-02-10 11:43:00,
2013-02-10 06:48:00,8.3,3.7,30.30,West,277,0.0,3.0,81,0.00,,,0.00,Wunderground v.1.15,2013-02-10 11:48:00,
2013-02-10 06:53:00,8.2,3.6,30.30,West,278,0.0,2.0,81,0.00,,,0.00,Wunderground v.1.15,2013-02-10 11:53:00,
2013-02-10 06:58:00,8.0,3.4,30.30,West,277,0.0,4.0,81,0.00,,,0.00,Wunderground v.1.15,2013-02-10 11:58:00,
2013-02-10 07:03:00,7.9,3.3,30.30,West,277,0.0,2.0,81,0.00,,,0.00,Wunderground v.1.15,2013-02-10 12:03:00,
2013-02-10 07:09:00,7.8,3.2,30.30,WNW,290,2.0,5.0,81,0.00,,,0.00,Wunderground v.1.15,2013-02-10 12:09:00,
2013-02-10 07:14:00,7.7,3.1,30.31,WNW,286,2.0,4.0,81,0.00,,,0.00,Wunderground v.1.15,2013-02-10 12:14:00,
2013-02-10 07:19:00,7.7,3.1,30.31,WNW,287,4.0,4.0,81,0.00,,,0.00,Wunderground v.1.15,2013-02-10 12:19:00,
2013-02-10 07:24:00,7.6,3.0,30.31,WNW,289,2.0,4.0,81,0.00,,,0.00,Wunderground v.1.15,2013-02-10 12:24:00,
2013-02-10 07:29:00,7.7,2.8,30.32,WNW,288,1.0,4.0,80,0.00,,,0.00,Wunderground v.1.15,2013-02-10 12:29:00,
2013-02-10 07:34:00,7.7,2.8,30.32,WNW,295,0.0,4.0,80,0.00,,,0.00,Wunderground v.1.15,2013-02-10 12:34:00,
2013-02-10 07:39:00,7.8,2.9,30.32,West,281,2.0,4.0,80,0.00,,,0.00,Wunderground v.1.15,2013-02-10 12:39:00,
2013-02-10 07:44:00,7.9,3.0,30.32,West,281,0.0,3.0,80,0.00,,,0.00,Wunderground v.1.15,2013-02-10 12:44:00,
2013-02-10 07:49:00,8.0,3.4,30.32,WNW,282,3.0,3.0,81,0.00,,,0.00,Wunderground v.1.15,2013-02-10 12:49:00,
2013-02-10 07:54:00,8.2,3.6,30.33,NNW,328,2.0,4.0,81,0.00,,,0.00,Wunderground v.1.15,2013-02-10 12:54:00,
2013-02-10 07:59:00,8.3,3.7,30.33,WNW,287,1.0,5.0,81,0.00,,,0.00,Wunderground v.1.15,2013-02-10 12:59:00,
2013-02-10 08:04:00,8.6,4.0,30.33,West,276,2.0,7.0,81,0.00,,,0.00,Wunderground v.1.15,2013-02-10 13:04:00,
2013-02-10 08:09:00,9.1,4.5,30.33,WNW,300,0.0,7.0,81,0.00,,,0.00,Wunderground v.1.15,2013-02-10 13:09:00,
2013-02-10 08:14:00,9.5,4.8,30.33,WNW,295,0.0,2.0,81,0.00,,,0.00,Wunderground v.1.15,2013-02-10 13:14:00,
2013-02-10 08:19:00,9.9,5.2,30.33,West,271,0.0,2.0,81,0.00,,,0.00,Wunderground v.1.15,2013-02-10 13:19:00,
2013-02-10 08:24:00,10.4,5.7,30.34,NW,311,0.0,0.0,81,0.00,,,0.00,Wunderground v.1.15,2013-02-10 13:24:00,
2013-02-10 08:29:00,10.9,6.2,30.34,NW,309,0.0,0.0,81,0.00,,,0.00,Wunderground v.1.15,2013-02-10 13:29:00,
2013-02-10 08:34:00,11.4,7.0,30.34,West,275,0.0,0.0,82,0.00,,,0.00,Wunderground v.1.15,2013-02-10 13:34:00,
2013-02-10 08:39:00,12.1,7.7,30.34,NW,319,0.0,0.0,82,0.00,,,0.00,Wunderground v.1.15,2013-02-10 13:39:00,
2013-02-10 08:44:00,12.8,8.3,30.34,West,275,0.0,0.0,82,0.00,,,0.00,Wunderground v.1.15,2013-02-10 13:44:00,
2013-02-10 08:49:00,13.5,9.0,30.34,NW,323,0.0,0.0,82,0.00,,,0.00,Wunderground v.1.15,2013-02-10 13:49:00,
2013-02-10 08:54:00,14.1,9.6,30.34,WNW,296,0.0,0.0,82,0.00,,,0.00,Wunderground v.1.15,2013-02-10 13:54:00,
2013-02-10 08:59:00,14.6,10.4,30.34,NNW,348,0.0,0.0,83,0.00,,,0.00,Wunderground v.1.15,2013-02-10 13:59:00,
2013-02-10 09:04:00,15.1,10.9,30.34,NW,315,0.0,0.0,83,0.00,,,0.00,Wunderground v.1.15,2013-02-10 14:04:00,
2013-02-10 09:09:00,15.5,11.3,30.35,NW,304,0.0,0.0,83,0.00,,,0.00,Wunderground v.1.15,2013-02-10 14:09:00,
2013-02-10 09:14:00,15.9,11.7,30.34,NNW,336,0.0,0.0,83,0.00,,,0.00,Wunderground v.1.15,2013-02-10 14:14:00,
2013-02-10 09:19:00,16.3,12.0,30.34,WNW,284,0.0,0.0,83,0.00,,,0.00,Wunderground v.1.15,2013-02-10 14:19:00,
2013-02-10 09:24:00,16.6,12.3,30.35,NW,314,0.0,0.0,83,0.00,,,0.00,Wunderground v.1.15,2013-02-10 14:24:00,
2013-02-10 09:29:00,16.9,12.6,30.35,NW,313,0.0,0.0,83,0.00,,,0.00,Wunderground v.1.15,2013-02-10 14:29:00,
2013-02-10 09:35:00,17.2,12.9,30.35,NW,306,0.0,0.0,83,0.00,,,0.00,Wunderground v.1.15,2013-02-10 14:35:00,
2013-02-10 09:40:00,17.5,13.2,30.35,WNW,294,0.0,0.0,83,0.00,,,0.00,Wunderground v.1.15,2013-02-10 14:40:00,
2013-02-10 09:45:00,17.8,13.5,30.35,NNW,337,0.0,0.0,83,0.00,,,0.00,Wunderground v.1.15,2013-02-10 14:45:00,
2013-02-10 09:50:00,18.1,13.8,30.35,NW,318,0.0,0.0,83,0.00,,,0.00,Wunderground v.1.15,2013-02-10 14:50:00,
2013-02-10 09:55:00,18.4,14.4,30.36,NNW,340,0.0,0.0,84,0.00,,,0.00,Wunderground v.1.15,2013-02-10 14:55:00,
2013-02-10 10:00:00,18.7,14.7,30.35,WNW,298,0.0,0.0,84,0.00,,,0.00,Wunderground v.1.15,2013-02-10 15:00:00,
2013-02-10 10:05:00,19.0,15.0,30.35,West,265,0.0,0.0,84,0.00,,,0.00,Wunderground v.1.15,2013-02-10 15:05:00,
2013-02-10 10:10:00,19.4,15.4,30.36,West,279,0.0,0.0,84,0.00,,,0.00,Wunderground v.1.15,2013-02-10 15:10:00,
2013-02-10 10:15:00,19.7,15.6,30.36,NW,321,0.0,0.0,84,0.00,,,0.00,Wunderground v.1.15,2013-02-10 15:15:00,
2013-02-10 10:20:00,20.0,15.9,30.36,North,5,0.0,0.0,84,0.00,,,0.00,Wunderground v.1.15,2013-02-10 15:20:00,
2013-02-10 10:25:00,20.3,16.2,30.36,NNW,345,0.0,0.0,84,0.00,,,0.00,Wunderground v.1.15,2013-02-10 15:25:00,
2013-02-10 10:30:00,20.7,16.6,30.36,North,355,0.0,0.0,84,0.00,,,0.00,Wunderground v.1.15,2013-02-10 15:30:00,
2013-02-10 10:35:00,21.1,17.0,30.36,WNW,287,0.0,0.0,84,0.00,,,0.00,Wunderground v.1.15,2013-02-10 15:35:00,
2013-02-10 10:40:00,21.3,17.2,30.36,NNW,346,0.0,0.0,84,0.00,,,0.00,Wunderground v.1.15,2013-02-10 15:40:00,
2013-02-10 10:45:00,21.6,17.5,30.35,NNW,331,0.0,0.0,84,0.00,,,0.00,Wunderground v.1.15,2013-02-10 15:45:00,
2013-02-10 10:50:00,21.9,17.8,30.35,NNW,331,0.0,0.0,84,0.00,,,0.00,Wunderground v.1.15,2013-02-10 15:50:00,
2013-02-10 10:55:00,22.2,18.4,30.35,WNW,298,0.0,0.0,85,0.00,,,0.00,Wunderground v.1.15,2013-02-10 15:55:00,
2013-02-10 11:00:00,22.6,18.8,30.35,NNW,340,0.0,0.0,85,0.00,,,0.00,Wunderground v.1.15,2013-02-10 16:00:00,
2013-02-10 11:05:00,22.9,19.1,30.35,WNW,290,0.0,0.0,85,0.00,,,0.00,Wunderground v.1.15,2013-02-10 16:05:00,
2013-02-10 11:10:00,23.2,19.4,30.35,WNW,303,0.0,0.0,85,0.00,,,0.00,Wunderground v.1.15,2013-02-10 16:10:00,
2013-02-10 11:15:00,23.4,19.6,30.35,WNW,292,0.0,0.0,85,0.00,,,0.00,Wunderground v.1.15,2013-02-10 16:15:00,
2013-02-10 11:20:00,23.6,19.8,30.35,NNW,340,0.0,0.0,85,0.00,,,0.00,Wunderground v.1.15,2013-02-10 16:20:00,
2013-02-10 11:25:00,23.9,20.0,30.35,NNW,340,0.0,0.0,85,0.00,,,0.00,Wunderground v.1.15,2013-02-10 16:25:00,
2013-02-10 11:30:00,24.1,20.2,30.35,NNW,334,0.0,0.0,85,0.00,,,0.00,Wunderground v.1.15,2013-02-10 16:30:00,
2013-02-10 11:35:00,24.5,20.6,30.34,North,355,0.0,0.0,85,0.00,,,0.00,Wunderground v.1.15,2013-02-10 16:35:00,
2013-02-10 11:40:00,24.8,20.9,30.34,NNW,341,0.0,0.0,85,0.00,,,0.00,Wunderground v.1.15,2013-02-10 16:40:00,
2013-02-10 11:45:00,25.1,21.2,30.34,NNW,340,0.0,0.0,85,0.00,,,0.00,Wunderground v.1.15,2013-02-10 16:45:00,
2013-02-10 11:50:00,25.3,21.4,30.34,NW,322,0.0,0.0,85,0.00,,,0.00,Wunderground v.1.15,2013-02-10 16:50:00,
2013-02-10 11:55:00,25.5,21.9,30.34,WNW,284,0.0,0.0,86,0.00,,,0.00,Wunderground v.1.15,2013-02-10 16:55:00,
2013-02-10 12:00:00,25.8,22.2,30.34,WNW,299,0.0,0.0,86,0.00,,,0.00,Wunderground v.1.15,2013-02-10 17:00:00,
2013-02-10 12:05:00,26.0,22.4,30.34,NNW,330,0.0,0.0,86,0.00,,,0.00,Wunderground v.1.15,2013-02-10 17:05:00,
2013-02-10 12:10:00,26.2,22.6,30.34,NW,315,0.0,0.0,86,0.00,,,0.00,Wunderground v.1.15,2013-02-10 17:10:00,
2013-02-10 12:15:00,26.5,22.9,30.34,NW,320,0.0,0.0,86,0.00,,,0.00,Wunderground v.1.15,2013-02-10 17:15:00,
2013-02-10 12:20:00,26.7,23.1,30.34,NW,322,5.0,8.0,86,0.00,,,0.00,Wunderground v.1.15,2013-02-10 17:20:00,
2013-02-10 12:25:00,26.9,23.3,30.34,North,355,8.0,10.0,86,0.00,,,0.00,Wunderground v.1.15,2013-02-10 17:25:00,
2013-02-10 12:30:00,27.0,23.4,30.33,NNW,331,6.0,7.0,86,0.00,,,0.00,Wunderground v.1.15,2013-02-10 17:30:00,
2013-02-10 12:35:00,27.2,23.6,30.33,WNW,299,3.0,7.0,86,0.00,,,0.00,Wunderground v.1.15,2013-02-10 17:35:00,
2013-02-10 12:40:00,27.4,23.8,30.33,West,278,2.0,5.0,86,0.00,,,0.00,Wunderground v.1.15,2013-02-10 17:40:00,
2013-02-10 12:45:00,27.7,24.1,30.33,NW,309,2.0,6.0,86,0.00,,,0.00,Wunderground v.1.15,2013-02-10 17:45:00,
2013-02-10 12:50:00,27.9,24.3,30.32,West,277,4.0,4.0,86,0.00,,,0.00,Wunderground v.1.15,2013-02-10 17:50:00,
2013-02-10 12:55:00,28.0,24.4,30.32,NW,325,4.0,7.0,86,0.00,,,0.00,Wunderground v.1.15,2013-02-10 17:55:00,
2013-02-10 13:00:00,28.1,24.5,30.32,North,350,1.0,4.0,86,0.00,,,0.00,Wunderground v.1.15,2013-02-10 18:00:00,
2013-02-10 13:05:00,28.3,24.6,30.32,WNW,296,3.0,6.0,86,0.00,,,0.00,Wunderground v.1.15,2013-02-10 18:05:00,
2013-02-10 13:10:00,28.4,24.7,30.31,NNW,346,4.0,4.0,86,0.00,,,0.00,Wunderground v.1.15,2013-02-10 18:10:00,
2013-02-10 13:15:00,28.5,24.8,30.31,NW,322,3.0,8.0,86,0.00,,,0.00,Wunderground v.1.15,2013-02-10 18:15:00,
2013-02-10 13:20:00,28.7,25.0,30.31,NNW,337,3.0,5.0,86,0.00,,,0.00,Wunderground v.1.15,2013-02-10 18:20:00,
2013-02-10 13:25:00,28.7,25.0,30.31,NNW,338,2.0,5.0,86,0.00,,,0.00,Wunderground v.1.15,2013-02-10 18:25:00,
2013-02-10 13:30:00,28.9,25.2,30.30,NNW,338,2.0,2.0,86,0.00,,,0.00,Wunderground v.1.15,2013-02-10 18:30:00,
2013-02-10 13:35:00,28.9,25.2,30.30,NW,304,1.0,6.0,86,0.00,,,0.00,Wunderground v.1.15,2013-02-10 18:35:00,
2013-02-10 13:40:00,29.1,25.7,30.30,WNW,296,3.0,4.0,87,0.00,,,0.00,Wunderground v.1.15,2013-02-10 18:40:00,
2013-02-10 13:45:00,29.2,25.8,30.30,SW,234,0.0,5.0,87,0.00,,,0.00,Wunderground v.1.15,2013-02-10 18:45:00,
2013-02-10 13:50:00,29.6,26.2,30.30,West,259,2.0,3.0,87,0.00,,,0.00,Wunderground v.1.15,2013-02-10 18:50:00,
2013-02-10 13:55:00,29.9,26.5,30.30,West,259,2.0,3.0,87,0.00,,,0.00,Wunderground v.1.15,2013-02-10 18:55:00,
2013-02-10 14:00:00,30.1,26.7,30.29,NNW,340,4.0,4.0,87,0.00,,,0.00,Wunderground v.1.15,2013-02-10 19:00:00,
2013-02-10 14:05:00,30.1,26.7,30.29,NNW,333,2.0,5.0,87,0.00,,,0.00,Wunderground v.1.15,2013-02-10 19:05:00,
2013-02-10 14:10:00,30.1,26.7,30.29,NNW,333,0.0,3.0,87,0.00,,,0.00,Wunderground v.1.15,2013-02-10 19:10:00,
2013-02-10 14:15:00,30.3,26.9,30.29,SSW,202,1.0,4.0,87,0.00,,,0.00,Wunderground v.1.15,2013-02-10 19:15:00,
2013-02-10 14:20:00,30.6,27.2,30.29,SSW,202,0.0,1.0,87,0.00,,,0.00,Wunderground v.1.15,2013-02-10 19:20:00,
2013-02-10 14:25:00,30.6,27.2,30.29,SSW,211,2.0,3.0,87,0.00,,,0.00,Wunderground v.1.15,2013-02-10 19:25:00,
2013-02-10 14:30:00,30.6,27.2,30.29,SSW,206,2.0,4.0,87,0.00,,,0.00,Wunderground v.1.15,2013-02-10 19:30:00,
2013-02-10 14:35:00,30.7,27.3,30.29,NW,312,3.0,4.0,87,0.00,,,0.00,Wunderground v.1.15,2013-02-10 19:35:00,
2013-02-10 14:40:00,30.7,27.3,30.29,NW,312,1.0,1.0,87,0.00,,,0.00,Wunderground v.1.15,2013-02-10 19:40:00,
2013-02-10 14:45:00,30.7,27.3,30.30,WSW,250,0.0,2.0,87,0.00,,,0.00,Wunderground v.1.15,2013-02-10 19:45:00,
2013-02-10 14:50:00,30.8,27.4,30.30,WSW,250,0.0,2.0,87,0.00,,,0.00,Wunderground v.1.15,2013-02-10 19:50:00,
2013-02-10 14:55:00,31.0,27.9,30.30,WSW,256,7.0,8.0,88,0.00,,,0.00,Wunderground v.1.15,2013-02-10 19:55:00,
2013-02-10 15:00:00,31.1,27.7,30.30,West,265,1.0,2.0,87,0.00,,,0.00,Wunderground v.1.15,2013-02-10 20:00:00,
2013-02-10 15:06:00,31.2,27.8,30.31,West,265,3.0,7.0,87,0.00,,,0.00,Wunderground v.1.15,2013-02-10 20:06:00,
2013-02-10 15:11:00,31.2,28.1,30.30,West,271,1.0,3.0,88,0.00,,,0.00,Wunderground v.1.15,2013-02-10 20:11:00,
2013-02-10 15:16:00,31.3,28.2,30.30,WNW,292,4.0,5.0,88,0.00,,,0.00,Wunderground v.1.15,2013-02-10 20:16:00,
2013-02-10 15:21:00,31.3,28.2,30.30,West,275,3.0,3.0,88,0.00,,,0.00,Wunderground v.1.15,2013-02-10 20:21:00,
2013-02-10 15:26:00,31.4,28.3,30.31,West,281,1.0,5.0,88,0.00,,,0.00,Wunderground v.1.15,2013-02-10 20:26:00,
2013-02-10 15:31:00,31.4,28.3,30.31,WNW,299,4.0,7.0,88,0.00,,,0.00,Wunderground v.1.15,2013-02-10 20:31:00,
2013-02-10 15:36:00,31.4,28.3,30.31,West,265,3.0,7.0,88,0.00,,,0.00,Wunderground v.1.15,2013-02-10 20:36:00,
2013-02-10 15:41:00,31.4,28.3,30.31,WSW,249,3.0,4.0,88,0.00,,,0.00,Wunderground v.1.15,2013-02-10 20:41:00,
2013-02-10 15:46:00,31.4,28.3,30.31,WSW,248,1.0,4.0,88,0.00,,,0.00,Wunderground v.1.15,2013-02-10 20:46:00,
2013-02-10 15:51:00,31.4,28.3,30.31,WNW,284,3.0,4.0,88,0.00,,,0.00,Wunderground v.1.15,2013-02-10 20:51:00,
2013-02-10 15:56:00,31.4,28.3,30.31,West,268,1.0,4.0,88,0.00,,,0.00,Wunderground v.1.15,2013-02-10 20:56:00,
2013-02-10 16:01:00,31.3,28.2,30.32,WSW,252,1.0,3.0,88,0.00,,,0.00,Wunderground v.1.15,2013-02-10 21:01:00,
2013-02-10 16:06:00,31.4,28.3,30.33,WNW,285,2.0,5.0,88,0.00,,,0.00,Wunderground v.1.15,2013-02-10 21:06:00,
2013-02-10 16:11:00,31.3,28.2,30.32,SW,215,0.0,3.0,88,0.00,,,0.00,Wunderground v.1.15,2013-02-10 21:11:00,
2013-02-10 16:16:00,31.3,28.2,30.31,SW,224,3.0,4.0,88,0.00,,,0.00,Wunderground v.1.15,2013-02-10 21:16:00,
2013-02-10 16:21:00,31.3,28.2,30.31,SW,231,3.0,5.0,88,0.00,,,0.00,Wunderground v.1.15,2013-02-10 21:21:00,
2013-02-10 16:26:00,31.3,28.2,30.31,SW,230,2.0,5.0,88,0.00,,,0.00,Wunderground v.1.15,2013-02-10 21:26:00,
2013-02-10 16:31:00,31.2,28.1,30.31,SW,226,2.0,4.0,88,0.00,,,0.00,Wunderground v.1.15,2013-02-10 21:31:00,
2013-02-10 16:36:00,31.2,28.1,30.31,SW,226,2.0,4.0,88,0.00,,,0.00,Wunderground v.1.15,2013-02-10 21:36:00,
2013-02-10 16:41:00,31.1,28.0,30.31,SW,226,0.0,2.0,88,0.00,,,0.00,Wunderground v.1.15,2013-02-10 21:41:00,
2013-02-10 16:46:00,31.1,28.0,30.30,SW,227,2.0,2.0,88,0.00,,,0.00,Wunderground v.1.15,2013-02-10 21:46:00,
2013-02-10 16:51:00,31.0,27.9,30.30,SW,227,0.0,2.0,88,0.00,,,0.00,Wunderground v.1.15,2013-02-10 21:51:00,
2013-02-10 16:56:00,30.9,27.8,30.30,SW,227,1.0,2.0,88,0.00,,,0.00,Wunderground v.1.15,2013-02-10 21:56:00,
2013-02-10 17:01:00,30.8,27.7,30.31,SW,227,0.0,1.0,88,0.00,,,0.00,Wunderground v.1.15,2013-02-10 22:01:00,
2013-02-10 17:06:00,30.7,27.6,30.30,SW,227,0.0,1.0,88,0.00,,,0.00,Wunderground v.1.15,2013-02-10 22:06:00,
2013-02-10 17:11:00,30.6,27.5,30.31,SW,227,0.0,0.0,88,0.00,,,0.00,Wunderground v.1.15,2013-02-10 22:11:00,
2013-02-10 17:16:00,30.4,27.3,30.31,SW,227,1.0,1.0,88,0.00,,,0.00,Wunderground v.1.15,2013-02-10 22:16:00,
2013-02-10 17:21:00,30.2,27.1,30.32,SW,226,0.0,0.0,88,0.00,,,0.00,Wunderground v.1.15,2013-02-10 22:21:00,
2013-02-10 17:26:00,29.9,26.8,30.32,SW,226,0.0,0.0,88,0.00,,,0.00,Wunderground v.1.15,2013-02-10 22:26:00,
2013-02-10 17:31:00,29.6,26.5,30.32,SW,227,0.0,0.0,88,0.00,,,0.00,Wunderground v.1.15,2013-02-10 22:31:00,
2013-02-10 17:36:00,29.3,26.2,30.32,SW,227,0.0,0.0,88,0.00,,,0.00,Wunderground v.1.15,2013-02-10 22:36:00,
2013-02-10 17:41:00,28.8,25.7,30.32,SW,227,0.0,0.0,88,0.00,,,0.00,Wunderground v.1.15,2013-02-10 22:41:00,
2013-02-10 17:46:00,28.5,25.4,30.32,SW,227,0.0,1.0,88,0.00,,,0.00,Wunderground v.1.15,2013-02-10 22:46:00,
2013-02-10 17:51:00,28.0,24.9,30.31,SW,226,0.0,0.0,88,0.00,,,0.00,Wunderground v.1.15,2013-02-10 22:51:00,
2013-02-10 17:56:00,27.6,24.5,30.31,SW,226,0.0,0.0,88,0.00,,,0.00,Wunderground v.1.15,2013-02-10 22:56:00,
2013-02-10 18:01:00,27.2,24.1,30.32,SW,227,1.0,1.0,88,0.00,,,0.00,Wunderground v.1.15,2013-02-10 23:01:00,
2013-02-10 18:06:00,26.9,23.8,30.31,SW,227,0.0,1.0,88,0.00,,,0.00,Wunderground v.1.15,2013-02-10 23:06:00,
2013-02-10 18:11:00,26.5,23.4,30.31,SW,226,2.0,2.0,88,0.00,,,0.00,Wunderground v.1.15,2013-02-10 23:11:00,
2013-02-10 18:16:00,26.1,22.8,30.31,ESE,109,3.0,4.0,87,0.00,,,0.00,Wunderground v.1.15,2013-02-10 23:16:00,
2013-02-10 18:21:00,25.8,22.5,30.32,ESE,109,0.0,1.0,87,0.00,,,0.00,Wunderground v.1.15,2013-02-10 23:21:00,
2013-02-10 18:26:00,25.4,22.1,30.32,ESE,109,0.0,1.0,87,0.00,,,0.00,Wunderground v.1.15,2013-02-10 23:26:00,
2013-02-10 18:31:00,25.2,21.9,30.32,ESE,109,0.0,0.0,87,0.00,,,0.00,Wunderground v.1.15,2013-02-10 23:31:00,
2013-02-10 18:36:00,24.9,21.6,30.32,ESE,109,0.0,0.0,87,0.00,,,0.00,Wunderground v.1.15,2013-02-10 23:36:00,
2013-02-10 18:42:00,24.7,21.4,30.33,ESE,109,0.0,2.0,87,0.00,,,0.00,Wunderground v.1.15,2013-02-10 23:42:00,
2013-02-10 18:47:00,24.5,21.2,30.32,ESE,109,0.0,2.0,87,0.00,,,0.00,Wunderground v.1.15,2013-02-10 23:47:00,
2013-02-10 18:51:00,24.2,20.9,30.32,ESE,109,0.0,0.0,87,0.00,,,0.00,Wunderground v.1.15,2013-02-10 23:51:00,
2013-02-10 18:56:00,24.0,20.7,30.33,ESE,109,0.0,0.0,87,0.00,,,0.00,Wunderground v.1.15,2013-02-10 23:56:00,
2013-02-10 19:01:00,23.8,20.5,30.33,ESE,109,0.0,0.0,87,0.00,,,0.00,Wunderground v.1.15,2013-02-11 00:01:00,
2013-02-10 19:06:00,23.6,20.3,30.33,ESE,109,0.0,1.0,87,0.00,,,0.00,Wunderground v.1.15,2013-02-11 00:06:00,
2013-02-10 19:11:00,23.4,20.1,30.33,ESE,109,1.0,2.0,87,0.00,,,0.00,Wunderground v.1.15,2013-02-11 00:11:00,
2013-02-10 19:16:00,23.2,19.9,30.33,ESE,109,1.0,3.0,87,0.00,,,0.00,Wunderground v.1.15,2013-02-11 00:16:00,
2013-02-10 19:21:00,23.0,19.7,30.33,ESE,109,0.0,2.0,87,0.00,,,0.00,Wunderground v.1.15,2013-02-11 00:21:00,
2013-02-10 19:26:00,22.9,19.3,30.33,ESE,109,0.0,2.0,86,0.00,,,0.00,Wunderground v.1.15,2013-02-11 00:26:00,
2013-02-10 19:31:00,22.7,19.1,30.33,ESE,109,0.0,0.0,86,0.00,,,0.00,Wunderground v.1.15,2013-02-11 00:31:00,
2013-02-10 19:36:00,22.5,18.9,30.33,ESE,109,0.0,0.0,86,0.00,,,0.00,Wunderground v.1.15,2013-02-11 00:36:00,
2013-02-10 19:41:00,22.3,18.7,30.33,ESE,109,0.0,0.0,86,0.00,,,0.00,Wunderground v.1.15,2013-02-11 00:41:00,
2013-02-10 19:46:00,22.2,18.7,30.33,ESE,109,0.0,0.0,86,0.00,,,0.00,Wunderground v.1.15,2013-02-11 00:46:00,
2013-02-10 19:51:00,22.0,18.5,30.32,ESE,109,0.0,0.0,86,0.00,,,0.00,Wunderground v.1.15,2013-02-11 00:51:00,
2013-02-10 19:57:00,21.8,18.3,30.33,ESE,109,1.0,2.0,86,0.00,,,0.00,Wunderground v.1.15,2013-02-11 00:57:00,
2013-02-10 20:02:00,21.6,18.1,30.32,ESE,109,0.0,1.0,86,0.00,,,0.00,Wunderground v.1.15,2013-02-11 01:02:00,
2013-02-10 20:07:00,21.5,18.0,30.33,ESE,109,1.0,2.0,86,0.00,,,0.00,Wunderground v.1.15,2013-02-11 01:07:00,
2013-02-10 20:12:00,21.3,17.8,30.33,ESE,109,1.0,1.0,86,0.00,,,0.00,Wunderground v.1.15,2013-02-11 01:12:00,
2013-02-10 20:17:00,21.2,17.7,30.33,ESE,109,0.0,2.0,86,0.00,,,0.00,Wunderground v.1.15,2013-02-11 01:17:00,
2013-02-10 20:22:00,21.0,17.5,30.33,ESE,108,0.0,1.0,86,0.00,,,0.00,Wunderground v.1.15,2013-02-11 01:22:00,
2013-02-10 20:27:00,20.9,17.1,30.32,ESE,109,0.0,1.0,85,0.00,,,0.00,Wunderground v.1.15,2013-02-11 01:27:00,
2013-02-10 20:32:00,20.7,17.2,30.32,ESE,109,0.0,0.0,86,0.00,,,0.00,Wunderground v.1.15,2013-02-11 01:32:00,
2013-02-10 20:37:00,20.5,17.0,30.32,ESE,109,0.0,0.0,86,0.00,,,0.00,Wunderground v.1.15,2013-02-11 01:37:00,
2013-02-10 20:42:00,20.3,16.5,30.32,ESE,109,0.0,0.0,85,0.00,,,0.00,Wunderground v.1.15,2013-02-11 01:42:00,
2013-02-10 20:47:00,20.2,16.4,30.32,ESE,109,0.0,0.0,85,0.00,,,0.00,Wunderground v.1.15,2013-02-11 01:47:00,
2013-02-10 20:52:00,20.0,16.2,30.33,ESE,109,0.0,0.0,85,0.00,,,0.00,Wunderground v.1.15,2013-02-11 01:52:00,
2013-02-10 20:57:00,19.9,16.1,30.33,ESE,109,1.0,1.0,85,0.00,,,0.00,Wunderground v.1.15,2013-02-11 01:57:00,
2013-02-10 21:02:00,19.7,15.9,30.33,ESE,109,0.0,1.0,85,0.00,,,0.00,Wunderground v.1.15,2013-02-11 02:02:00,
2013-02-10 21:07:00,19.7,15.9,30.33,ESE,109,0.0,2.0,85,0.00,,,0.00,Wunderground v.1.15,2013-02-11 02:07:00,
2013-02-10 21:12:00,19.5,15.7,30.33,ESE,109,1.0,2.0,85,0.00,,,0.00,Wunderground v.1.15,2013-02-11 02:12:00,
2013-02-10 21:17:00,19.4,15.6,30.33,ESE,109,0.0,2.0,85,0.00,,,0.00,Wunderground v.1.15,2013-02-11 02:17:00,
2013-02-10 21:22:00,19.3,15.5,30.33,ESE,109,0.0,0.0,85,0.00,,,0.00,Wunderground v.1.15,2013-02-11 02:22:00,
2013-02-10 21:27:00,19.1,15.3,30.32,ESE,109,0.0,0.0,85,0.00,,,0.00,Wunderground v.1.15,2013-02-11 02:27:00,
2013-02-10 21:32:00,19.0,15.2,30.32,ESE,109,2.0,2.0,85,0.00,,,0.00,Wunderground v.1.15,2013-02-11 02:32:00,
2013-02-10 21:37:00,18.9,15.1,30.32,ESE,109,1.0,2.0,85,0.00,,,0.00,Wunderground v.1.15,2013-02-11 02:37:00,
2013-02-10 21:42:00,18.8,15.0,30.32,ESE,109,1.0,2.0,85,0.00,,,0.00,Wunderground v.1.15,2013-02-11 02:42:00,
2013-02-10 21:47:00,18.6,14.8,30.33,ESE,107,1.0,2.0,85,0.00,,,0.00,Wunderground v.1.15,2013-02-11 02:47:00,
2013-02-10 21:52:00,18.5,14.7,30.32,ESE,109,0.0,1.0,85,0.00,,,0.00,Wunderground v.1.15,2013-02-11 02:52:00,
2013-02-10 21:57:00,18.4,14.6,30.32,ESE,109,2.0,2.0,85,0.00,,,0.00,Wunderground v.1.15,2013-02-11 02:57:00,
2013-02-10 22:02:00,18.2,14.4,30.32,ESE,109,1.0,2.0,85,0.00,,,0.00,Wunderground v.1.15,2013-02-11 03:02:00,
2013-02-10 22:07:00,18.1,14.4,30.32,ESE,109,0.0,2.0,85,0.00,,,0.00,Wunderground v.1.15,2013-02-11 03:07:00,
2013-02-10 22:12:00,17.9,13.9,30.32,ESE,108,0.0,1.0,84,0.00,,,0.00,Wunderground v.1.15,2013-02-11 03:12:00,
2013-02-10 22:17:00,17.8,13.8,30.32,ESE,109,0.0,1.0,84,0.00,,,0.00,Wunderground v.1.15,2013-02-11 03:17:00,
2013-02-10 22:22:00,17.6,13.6,30.32,ESE,109,0.0,0.0,84,0.00,,,0.00,Wunderground v.1.15,2013-02-11 03:22:00,
2013-02-10 22:27:00,17.5,13.5,30.32,ESE,109,0.0,0.0,84,0.00,,,0.00,Wunderground v.1.15,2013-02-11 03:27:00,
2013-02-10 22:32:00,17.4,13.4,30.32,ESE,109,2.0,2.0,84,0.00,,,0.00,Wunderground v.1.15,2013-02-11 03:32:00,
2013-02-10 22:37:00,17.3,13.3,30.32,ESE,109,1.0,2.0,84,0.00,,,0.00,Wunderground v.1.15,2013-02-11 03:37:00,
2013-02-10 22:42:00,17.2,13.2,30.33,ESE,109,0.0,1.0,84,0.00,,,0.00,Wunderground v.1.15,2013-02-11 03:42:00,
2013-02-10 22:47:00,17.2,13.2,30.33,ESE,109,0.0,1.0,84,0.00,,,0.00,Wunderground v.1.15,2013-02-11 03:47:00,
2013-02-10 22:52:00,17.0,13.0,30.33,ESE,109,0.0,0.0,84,0.00,,,0.00,Wunderground v.1.15,2013-02-11 03:52:00,
2013-02-10 22:57:00,16.9,12.9,30.32,ESE,109,0.0,0.0,84,0.00,,,0.00,Wunderground v.1.15,2013-02-11 03:57:00,
2013-02-10 23:02:00,16.8,12.8,30.32,ESE,109,0.0,2.0,84,0.00,,,0.00,Wunderground v.1.15,2013-02-11 04:02:00,
2013-02-10 23:07:00,16.8,12.8,30.32,ESE,109,0.0,2.0,84,0.00,,,0.00,Wunderground v.1.15,2013-02-11 04:07:00,
2013-02-10 23:12:00,16.6,12.6,30.32,ESE,108,0.0,1.0,84,0.00,,,0.00,Wunderground v.1.15,2013-02-11 04:12:00,
2013-02-10 23:17:00,16.5,12.5,30.32,ESE,109,1.0,2.0,84,0.00,,,0.00,Wunderground v.1.15,2013-02-11 04:17:00,
2013-02-10 23:22:00,16.4,12.4,30.32,ESE,109,0.0,0.0,84,0.00,,,0.00,Wunderground v.1.15,2013-02-11 04:22:00,
2013-02-10 23:27:00,16.3,12.3,30.32,ESE,109,0.0,0.0,84,0.00,,,0.00,Wunderground v.1.15,2013-02-11 04:27:00,
2013-02-10 23:32:00,16.2,12.2,30.32,ESE,108,0.0,1.0,84,0.00,,,0.00,Wunderground v.1.15,2013-02-11 04:32:00,
2013-02-10 23:37:00,16.0,12.0,30.32,ESE,109,0.0,1.0,84,0.00,,,0.00,Wunderground v.1.15,2013-02-11 04:37:00,
2013-02-10 23:42:00,16.0,12.0,30.32,ESE,109,0.0,0.0,84,0.00,,,0.00,Wunderground v.1.15,2013-02-11 04:42:00,
2013-02-10 23:47:00,15.9,11.9,30.32,ESE,109,0.0,0.0,84,0.00,,,0.00,Wunderground v.1.15,2013-02-11 04:47:00,
2013-02-10 23:52:00,15.8,11.8,30.32,ESE,109,1.0,2.0,84,0.00,,,0.00,Wunderground v.1.15,2013-02-11 04:52:00,
2013-02-10 23:57:00,15.7,11.7,30.32,ESE,109,0.0,2.0,84,0.00,,,0.00,Wunderground v.1.15,2013-02-11 04:57:00,